Total_Precipitation_Accumulation
2.11 2.18 2.19 2.24 2.10 1.95 1.90 2.00 2.12 1.91 1.76 1.56 1.33 1.16 1.26 1.27 1.35 1.17 1.10 1.05 0.94 0.87 0.80 0.68 0.65 0.72 0.91 1.19 1.28 1.21 1.24 1.42 1.79 2.11 1.91 1.71 1.55 1.51
1.89 1.96 2.01 2.06 2.07 2.04 2.00 1.99 1.96 1.91 1.80 1.62 1.34 1.09 1.17 1.23 1.36 1.17 1.20 1.29 1.08 0.93 0.80 0.72 0.67 0.67 0.74 0.87 0.94 0.82 0.74 0.79 1.05 1.64 1.84 1.71 1.64 1.68
1.66 1.69 1.81 1.86 2.03 2.07 2.03 1.98 1.97 1.89 1.73 1.64 1.40 1.18 1.18 1.26 1.33 1.24 1.28 1.28 1.11 1.02 0.91 0.84 0.75 0.76 0.77 0.82 0.89 0.81 0.68 0.59 0.61 0.80 1.06 1.19 1.36 1.59
1.45 1.47 1.58 1.64 1.78 1.90 2.00 1.91 1.92 1.87 1.85 1.79 1.57 1.35 1.26 1.29 1.35 1.31 1.23 1.22 1.20 1.16 1.04 0.95 0.89 0.84 0.86 0.81 0.86 0.87 0.81 0.70 0.63 0.62 0.71 0.84 0.98 1.15
1.22 1.25 1.31 1.38 1.51 1.63 1.74 1.83 1.84 1.77 1.87 1.85 1.64 1.40 1.28 1.28 1.31 1.29 1.26 1.33 1.23 1.22 1.17 1.04 0.99 0.92 0.94 0.93 0.88 0.88 0.80 0.73 0.67 0.66 0.69 0.74 0.83 0.91
0.98 0.97 1.00 1.03 1.15 1.29 1.40 1.55 1.71 1.83 1.91 1.93 1.78 1.49 1.31 1.29 1.34 1.40 1.40 1.34 1.35 1.24 1.23 1.19 1.17 1.11 1.03 1.04 0.94 0.85 0.80 0.77 0.71 0.68 0.67 0.69 0.69 0.70
0.96 0.87 0.81 0.81 0.91 1.00 1.10 1.35 1.55 1.71 1.85 1.91 1.83 1.65 1.48 1.40 1.34 1.34 1.44 1.54 1.55 1.39 1.33 1.24 1.20 1.06 0.96 0.97 0.94 0.84 0.76 0.71 0.66 0.61 0.57 0.55 0.56 0.60
0.91 0.91 0.90 0.85 0.75 0.71 0.78 0.95 1.18 1.39 1.57 1.69 1.71 1.59 1.44 1.41 1.45 1.45 1.44 1.51 1.57 1.43 1.39 1.46 1.39 1.25 1.10 0.98 1.02 0.92 0.81 0.76 0.73 0.68 0.63 0.61 0.61 0.61
0.87 0.87 0.91 0.91 0.95 0.84 0.78 0.76 0.80 0.97 1.22 1.43 1.45 1.42 1.49 1.43 1.39 1.35 1.33 1.33 1.35 1.37 1.39 1.44 1.44 1.32 1.15 1.09 1.16 1.08 0.99 0.89 0.84 0.82 0.79 0.71 0.66 0.63
0.92 0.94 0.98 1.02 0.99 1.09 1.06 0.97 0.90 0.89 0.99 0.94 1.04 1.31 1.42 1.44 1.45 1.46 1.50 1.42 1.35 1.33 1.29 1.34 1.29 1.24 1.13 1.06 1.11 1.05 0.97 0.90 0.86 0.84 0.86 0.86 0.84 0.80
0.88 0.90 0.95 0.99 1.18 1.22 1.13 1.11 1.04 0.99 1.12 1.12 1.14 1.19 1.26 1.27 1.30 1.39 1.46 1.41 1.36 1.30 1.22 1.14 1.11 1.19 1.24 1.15 1.11 1.16 1.09 0.99 0.93 0.93 0.92 0.93 0.97 0.97
0.94 0.91 1.06 1.03 1.05 1.00 0.97 1.16 1.14 1.04 0.95 0.91 0.92 0.97 0.99 1.04 1.12 1.16 1.31 1.32 1.27 1.28 1.17 1.12 1.09 1.16 1.23 1.16 1.04 1.01 1.05 1.09 1.05 1.00 1.02 1.02 1.03 0.97
0.95 0.97 0.95 1.03 0.86 0.82 0.86 1.01 1.16 1.10 1.06 1.08 1.01 0.96 0.93 0.93 0.90 0.96 1.10 1.20 1.22 1.21 1.10 1.06 1.11 1.14 1.08 1.00 1.00 0.91 0.84 0.86 0.87 0.86 0.87 0.93 0.99 0.93
0.84 0.76 0.75 0.83 0.69 0.64 0.63 0.76 0.94 0.96 0.97 1.05 1.03 0.96 0.90 0.87 0.85 0.85 0.93 1.02 1.05 1.07 1.09 1.06 1.06 1.08 1.06 0.91 0.87 0.87 0.83 0.80 0.79 0.78 0.73 0.86 0.90 0.95
0.64 0.64 0.57 0.54 0.53 0.49 0.53 0.62 0.69 0.83 0.97 1.01 0.91 0.84 0.84 0.87 0.88 0.86 0.83 0.86 0.89 0.89 0.90 0.89 0.95 1.04 1.08 0.98 0.87 0.83 0.85 0.87 0.82 0.80 0.79 0.76 0.75 0.79
0.43 0.37 0.35 0.38 0.45 0.47 0.48 0.50 0.56 0.77 0.95 0.95 0.87 0.81 0.82 0.86 0.93 0.95 0.92 0.86 0.86 0.88 0.87 0.86 0.88 0.95 0.94 0.89 0.88 0.86 0.85 0.85 0.83 0.87 0.90 0.86 0.79 0.72
0.55 0.47 0.41 0.39 0.41 0.44 0.47 0.53 0.65 0.76 0.86 0.82 0.82 0.79 0.80 0.86 0.91 0.95 1.01 0.98 0.91 0.87 0.93 0.99 1.02 1.03 0.99 0.96 0.93 0.89 0.91 0.89 0.88 0.91 0.93 0.92 0.86 0.78
0.54 0.55 0.55 0.56 0.57 0.55 0.54 0.51 0.52 0.61 0.69 0.75 0.76 0.77 0.77 0.77 0.78 0.82 0.89 0.94 0.93 0.89 0.85 0.89 1.00 1.10 1.11 1.03 0.92 0.88 0.94 0.95 0.95 0.95 0.92 0.87 0.82 0.82
0.46 0.48 0.49 0.51 0.51 0.50 0.48 0.46 0.44 0.44 0.51 0.62 0.73 0.79 0.82 0.81 0.80 0.77 0.75 0.77 0.77 0.77 0.77 0.76 0.82 0.90 0.97 0.94 0.87 0.76 0.79 0.87 0.91 0.88 0.85 0.81 0.74 0.75
0.30 0.35 0.35 0.36 0.37 0.39 0.37 0.35 0.35 0.38 0.40 0.44 0.54 0.67 0.83 0.92 0.93 0.90 0.84 0.81 0.81 0.76 0.75 0.73 0.70 0.72 0.77 0.77 0.73 0.67 0.67 0.74 0.78 0.76 0.72 0.74 0.74 0.81
0.14 0.17 0.18 0.20 0.24 0.26 0.27 0.28 0.29 0.32 0.36 0.39 0.42 0.47 0.59 0.75 0.85 0.90 0.96 1.02 0.99 0.93 0.88 0.86 0.82 0.84 0.80 0.81 0.74 0.59 0.57 0.61 0.64 0.63 0.63 0.66 0.68 0.69
0.11 0.13 0.14 0.15 0.18 0.21 0.22 0.24 0.25 0.28 0.31 0.35 0.38 0.42 0.49 0.57 0.67 0.76 0.81 0.87 0.93 0.96 0.95 0.93 0.93 0.94 0.90 0.89 0.80 0.67 0.61 0.61 0.64 0.70 0.69 0.71 0.65 0.61
0.11 0.13 0.14 0.16 0.18 0.22 0.30 0.34 0.32 0.31 0.34 0.38 0.43 0.45 0.48 0.53 0.58 0.66 0.72 0.76 0.82 0.84 0.85 0.87 0.87 0.86 0.84 0.81 0.80 0.78 0.72 0.68 0.67 0.65 0.61 0.70 0.71 0.62